EW5254 Weather Reports


Display with metric or nautical units.
time (UTC)temp
F
wind
direction
speed
MPH
gust
MPH
rain 1hr
in
rain 24hr
in
rain mn
in
humidity
%
barometer
mb
20260504081511 62 178 15.0 24.0 0.00 0.00 0.00 55 1003.2
20260504044554 65 165 13.0 22.0 0.00 0.00 0.00 49 1005.5
20260504043040 65 159 13.0 20.0 0.00 0.00 0.00 49 1005.5
20260504041537 64 160 12.0 20.0 0.00 0.00 0.00 51 1005.9
20260504040036 64 167 12.0 18.0 0.00 0.00 0.00 51 1006.0
20260504034540 64 169 13.0 21.0 0.00 0.00 0.00 51 1005.7
20260504033049 64 148 13.0 19.0 0.00 0.00 0.00 50 1005.5
20260504031535 64 161 10.0 17.0 0.00 0.00 0.00 50 1005.5
20260504030035 65 143 12.0 19.0 0.00 0.00 0.00 49 1005.5
20260504024533 65 163 11.0 16.0 0.00 0.00 0.00 48 1005.5
20260504023033 66 173 11.0 18.0 0.00 0.00 0.00 46 1005.5
20260504021536 67 149 10.0 15.0 0.00 0.00 0.00 44 1005.7
20260504020034 67 146 9.0 15.0 0.00 0.00 0.00 44 1005.8
20260504014531 67 182 11.0 16.0 0.00 0.00 0.00 43 1005.8
20260504013036 67 144 10.0 16.0 0.00 0.00 0.00 43 1005.7
20260504011531 68 173 10.0 15.0 0.00 0.00 0.00 43 1005.6
20260504010036 68 180 12.0 17.0 0.00 0.00 0.00 42 1005.8
20260504004529 69 157 11.0 17.0 0.00 0.00 0.00 42 1005.9
20260504003028 69 174 10.0 17.0 0.00 0.00 0.00 41 1005.7
20260504001528 70 182 10.0 16.0 0.00 0.00 0.00 41 1005.6
20260504000027 70 198 12.0 21.0 0.00 0.00 0.00 40 1005.5
20260503234527 70 164 11.0 18.0 0.00 0.00 0.00 40 1005.6
20260503233022 71 209 11.0 19.0 0.00 0.00 0.00 39 1006.0
20260503231522 71 203 11.0 16.0 0.00 0.00 0.00 39 1006.1
20260503230024 72 190 12.0 19.0 0.00 0.00 0.00 38 1006.3
20260503224518 72 169 12.0 20.0 0.00 0.00 0.00 38 1006.3
20260503223018 73 211 12.0 16.0 0.00 0.00 0.00 36 1006.4
20260503221528 73 196 12.0 19.0 0.00 0.00 0.00 36 1006.6
20260503220017 74 190 10.0 15.0 0.00 0.00 0.00 36 1006.7
20260503214514 74 194 9.0 18.0 0.00 0.00 0.00 36 1006.9
20260503213025 74 252 7.0 20.0 0.00 0.00 0.00 35 1007.3
20260503211515 74 204 8.0 13.0 0.00 0.00 0.00 37 1007.6
20260503210007 73 215 10.0 19.0 0.00 0.00 0.00 36 1007.7
20260503204505 73 185 9.0 15.0 0.00 0.00 0.00 37 1007.9
20260503203003 74 222 9.0 17.0 0.00 0.00 0.00 36 1008.4
20260503201502 73 169 8.0 13.0 0.00 0.00 0.00 37 1008.6
20260503200059 72 164 7.0 16.0 0.00 0.00 0.00 37 1009.0
20260503194558 71 148 9.0 15.0 0.00 0.00 0.00 37 1009.2
20260503193115 71 172 9.0 19.0 0.00 0.00 0.00 37 1009.5
20260503191555 73 171 7.0 15.0 0.00 0.00 0.00 36 1009.9
20260503190050 70 196 6.0 16.0 0.00 0.00 0.00 38 1010.1
20260503184548 71 244 7.0 13.0 0.00 0.00 0.00 37 1010.5
20260503183044 70 181 8.0 13.0 0.00 0.00 0.00 38 1011.0
20260503181615 69 216 9.0 16.0 0.00 0.00 0.00 38 1011.1
20260503180043 68 206 7.0 13.0 0.00 0.00 0.00 40 1011.2
20260503174538 68 165 5.0 12.0 0.00 0.00 0.00 42 1011.5
20260503173050 67 192 8.0 12.0 0.00 0.00 0.00 45 1012.0
20260503171532 67 198 9.0 14.0 0.00 0.00 0.00 45 1012.2